Flag for Senegal Weather past 2 weeks in Thiès, Senegal

Now
75 °F

Light rain. Broken clouds.


Feels Like: 74 °F
Forecast: 79 / 91 °F
Wind: 13 mph from East

Location: Dakar / Yoff

Current Time: Aug 28, 2015 at 10:05:02 AM

Latest Report: Aug 28, 2015 at 9:30 AM


Visibility: 5 mi

Pressure: 29.95 "Hg

Humidity: 94%

Dew point: 73 °F

Location of ThièsLocation

Historic Weather in Thiès — Graph

°F

Thiès temperature yesterday

Maximum temperature yesterday: 90 °F (at 12:00 PM)
Minimum temperature yesterday: 77 °F (at 4:00 AM)
Average temperature yesterday: 84 °F

Past Weeks' High & Low Weather Summary

 TemperatureHumidityPressure
High90 °F (Aug 27, 12:00 PM)100% (Aug 18, 7:30 AM)30.01 "Hg (Aug 18, 7:30 AM)
Low73 °F (Aug 15, 11:30 PM)62% (Aug 17, 4:00 PM)29.77 "Hg (Aug 16, 2:30 AM)
Average82 °F85%29.87 "Hg
* Reported Aug 13 9:00 AM — Aug 28 9:02 AM, Thiès, Weather by CustomWeather, © 2015

Note: Actual official high and low records may vary slightly from our data, if they occured in-between our weather recording intervals... More about our weather records

Advertising

Thiès weather history for previous 24 hours

 ConditionsComfort  
Time TempWeatherWind HumidityBarometerVisibility
9:02 AM
Fri, Aug 28
75 °FLight rain. Partly sunny.15 mph89%29.95 "Hg3 mi
8:30 AM84 °FScattered clouds.6 mph79%29.89 "HgN/A
8:00 AM82 °FScattered clouds.6 mph84%29.89 "HgN/A
7:30 AM82 °FBroken clouds.7 mph84%29.86 "HgN/A
7:00 AM82 °FScattered clouds.7 mph84%29.83 "HgN/A
6:30 AM82 °FPassing clouds.7 mph84%29.83 "HgN/A
6:00 AM82 °FPassing clouds.8 mph84%29.83 "HgN/A
5:30 AM82 °FPassing clouds.7 mph84%29.83 "HgN/A
5:00 AM82 °FPassing clouds.5 mph89%29.83 "HgN/A
4:00 AM82 °FPassing clouds.8 mph84%29.83 "HgN/A
3:00 AM82 °FPassing clouds.6 mph84%29.83 "HgN/A
2:30 AM82 °FPassing clouds.5 mph84%29.86 "HgN/A
2:00 AM82 °FPassing clouds.6 mph84%29.86 "HgN/A
1:30 AM82 °FPassing clouds.5 mph84%29.89 "HgN/A
1:10 AM82 °FPassing clouds.5 mph84%29.89 "HgN/A
1:00 AM82 °FPassing clouds.5 mph84%29.89 "HgN/A
12:30 AM82 °FPassing clouds.6 mph84%29.89 "HgN/A
12:00 AM82 °FPassing clouds.6 mph84%29.89 "HgN/A
11:30 PM
Thu, Aug 27
82 °FPassing clouds.5 mph84%29.92 "HgN/A
11:00 PM82 °FPassing clouds.5 mph84%29.92 "HgN/A
10:00 PM84 °FPassing clouds.5 mph79%29.89 "HgN/A
9:30 PM84 °FPassing clouds.6 mph79%29.89 "HgN/A
9:00 PM84 °FPassing clouds.6 mph79%29.86 "HgN/A
8:30 PM84 °FPassing clouds.7 mph79%29.86 "HgN/A
8:00 PM84 °FPassing clouds.8 mph79%29.86 "HgN/A
7:30 PM84 °FPassing clouds.7 mph79%29.86 "HgN/A
7:00 PM86 °FPassing clouds.6 mph75%29.86 "HgN/A
6:30 PM88 °FScattered clouds.5 mph70%29.86 "HgN/A
6:00 PM88 °FScattered clouds.3 mph70%29.86 "HgN/A
5:30 PM88 °FScattered clouds.6 mph75%29.86 "HgN/A
5:00 PM90 °FScattered clouds.5 mph67%29.86 "HgN/A
4:30 PM90 °FScattered clouds.3 mph67%29.86 "HgN/A
4:00 PM90 °FScattered clouds.7 mph67%29.86 "HgN/A
3:30 PM88 °FScattered clouds.6 mph70%29.86 "HgN/A
3:00 PM88 °FScattered clouds.6 mph70%29.86 "HgN/A
2:30 PM88 °FScattered clouds.5 mph66%29.86 "HgN/A
2:00 PM88 °FScattered clouds.6 mph70%29.89 "HgN/A
1:30 PM90 °FPassing clouds.6 mph63%29.89 "HgN/A
1:00 PM90 °FPassing clouds.5 mph71%29.89 "HgN/A
12:30 PM90 °FPassing clouds.3 mph67%29.92 "HgN/A
12:00 PM90 °FPassing clouds.2 mph100%29.92 "HgN/A
11:30 AM88 °FPassing clouds.2 mph75%29.92 "HgN/A
11:00 AM88 °FPassing clouds.2 mph75%29.92 "HgN/A
10:30 AM88 °FPassing clouds.1 mph75%29.95 "HgN/A
10:00 AM86 °FScattered clouds.No wind89%29.95 "HgN/A
Weather by CustomWeather, © 2015

See weather overviewHow to use our weather pages